Погода в Мари Шои

Россия / Республика Марий Эл     56°41′13″N   49°05′43″E
темп.,
°C
ветер,
м/с
пор.,
м/с
влажн.,
%
обл.,
%
осадки,
мм/ч
давл.,
гПа
погр.,
м
16 апреля, пт
пт1600:00+7св61296100 0.0 1022400
03:00+6св61290100 0.0 1023446
06:00+4всв61392100 0.0 1025450
09:00+6всв7128283 0.0 1026504
12:00+10всв78665 0.0 1026790
15:00+10всв686124 0.0 1026894
18:00+8св596830 0.0 1026375
21:00+5всв411765 0.0 1028263
17 апреля, сб
сб1700:00+3всв412784 0.0 1028251
03:00+1всв411780 0.0 1029218
06:00+1всв410750 0.0 1029283
09:00+6всв58530 0.0 1029589
12:00+10всв56440 0.0 1028972
15:00+11св45435 0.0 10271154
18:00+8св36581 0.0 1027154
21:00+5св33690 0.0 102733
18 апреля, вс
вс1800:00+3св36780 0.0 102693
03:00+2ссв35820 0.0 102780
06:00+3св37822 0.0 1027170
09:00+8св466115 0.0 1026721
12:00+10св675399 0.0 10261537
15:00+8св7761100 0.0 10271116
18:00+6всв5860100 0.0 10281085
21:00+3всв61253100 0.0 1030668
19 апреля, пн
пн1900:00+1всв51260100 0.0 1031504
03:000всв51269100 0.0 1032423
06:000в613644 0.0 1033546
09:00+4в811350 0.0 10331240
12:00+6в810310 0.0 10331616
15:00+7в79300 0.0 10331686
18:00+5в510380 0.0 1033681
21:00+1в412490 0.0 1034330
20 апреля, вт
вт2000:00−1в412550 0.0 1035310
03:00−1в411550 0.0 1035276
06:000в410490 0.0 1035323
09:00+6вюв68390 0.0 1034964
12:00+8вюв68300 0.0 10331350
15:00+9юв68290 0.0 10311369
18:00+7юв5940100 0.0 1031372
21:00+3вюв51453100 0.0 1030365